sat.trackr.live / text

‹ back to catalog

STARLINK-3349

NORAD 50813 · 2022-001L

PAYLOAD ACTIVE UNKNOWN

§ Identity

Operator
Country
US
Launch date
2022-01-06
Launch site
AFETR
Launch vehicle
Mass (kg)
RCS (m²)

Purposes: comms

External: N2YO · Heavens-Above · Gunter

§ Orbital elements

Epoch: 2026-05-25T02:59:01.391424Z

Period
93.31 min
Inclination
53.2030°
Eccentricity
0.0002831
Mean motion
15.43308189 rev/d
Perigee alt
434.4 km
Apogee alt
438.3 km
Semi-major
6,814.5 km
B*
9.9506e-4
RAAN
123.5632°
Arg perigee
55.6592°
Mean anomaly
304.4682°
Rev number
24,283

§ Raw data

STARLINK-33491 50813U 22001L   26145.12432166  .00044852  00000+0  99506-3 0  99992 50813  53.2030 123.5632 0002831  55.6592 304.4682 15.43308189242838

JSON: /api/v1/satellites/50813 · /tle

For live sub-satellite position, see the globe view (requires WebGL).

§ Visibility from observer

Set your observer location to see the next 7 days of passes ≥ 10°. The values pass through the URL so the page stays shareable.

No JS? Fill the form by hand. The geolocation button needs JavaScript.